Regional Weather Roundup
Issued by NWS

Home | Current Version | Previous Version | Text Only | Print | Product List | Glossary Off
Versions: 1 2 3 4 5 6 7 8 9 10 11 12 13 14 15 16 17 18 19 20 21 22 23 24 25 26 27 28 29 30 31 32 33 34 35 36 37 38 39 40 41 42 43 44 45 46 47 48 49 50

000
ASUS43 KLSX 281159
RWRMO

WEATHER SUMMARY FOR MISSOURI
NATIONAL WEATHER SERVICE SPRINGFIELD MO
600 AM CST SAT FEB 28 2015

NOTE: "FAIR" INDICATES FEW OR NO CLOUDS BELOW 12,000 FEET WITH NO
       SIGNIFICANT WEATHER AND/OR OBSTRUCTIONS TO VISIBILITY.
       CURRENT SKY AND/OR WEATHER CONDITIONS ARE NOT AVAILABLE FOR
       CHILLICOTHE AND FARMINGTON.

MOZ001>031-035>038-043-044-053-054-281300-
...NORTHERN AND WESTERN MISSOURI...

CITY           SKY/WX    TMP DP  RH WIND       PRES   REMARKS
KANSAS CTY INT CLOUDY    15   8  73 E7        30.51S WCI   5
6HR MIN TEMP:  14; 6HR MAX TEMP:  16;

KANSAS C DTWN  CLOUDY    17   9  70 E7        30.53S WCI   8
6HR MIN TEMP:  17; 6HR MAX TEMP:  18;

LEE`S SUMMIT   CLOUDY    17   8  67 E7        30.51S WCI   8
6HR MIN TEMP:  16; 6HR MAX TEMP:  17;

ST JOSEPH      CLEAR     13   6  74 E5        30.54R WCI   5
6HR MIN TEMP:  13; 6HR MAX TEMP:  16;

CHILLICOTHE      N/A     14   6  70 E5        30.58R WCI   6
6HR MIN TEMP:  12; 6HR MAX TEMP:  15;


$$
MOZ066>068-077>081-088>096-101>105-281300-
...SOUTHWEST MISSOURI...

CITY           SKY/WX    TMP DP  RH WIND       PRES   REMARKS
SPRINGFIELD    CLOUDY    20  11  68 SE12      30.47S WCI   8
6HR MIN TEMP:  19; 6HR MAX TEMP:  20;

JOPLIN         CLOUDY    20  14  77 SE8       30.49R WCI  10
6HR MIN TEMP:  18; 6HR MAX TEMP:  20;


$$
MOZ032>034-039>042-045>050-055>058-069>072-281300-
...CENTRAL MISSOURI...

CITY           SKY/WX    TMP DP  RH WIND       PRES   REMARKS
COLUMBIA       CLOUDY    16  10  77 E8        30.57R WCI   5
6HR MIN TEMP:  16; 6HR MAX TEMP:  17; 6HR PCP: TRACE;

JEFFERSON CITY CLOUDY    18  10  71 E7        30.60S WCI   9
6HR MIN TEMP:  17; 6HR MAX TEMP:  18;

ROLLA          CLOUDY    18   8  65 E9        30.53R WCI   7
6HR MIN TEMP:  18; 6HR MAX TEMP:  19;

SEDALIA        MOCLDY    18   8  65 E6        30.56R WCI  10
6HR MIN TEMP:  17; 6HR MAX TEMP:  19;

OSAGE BEACH    CLOUDY    21   5  49 E6        30.54R WCI  14

$$
MOZ051-052-059>065-281300-
...EAST CENTRAL MISSOURI...

CITY           SKY/WX    TMP DP  RH WIND       PRES   REMARKS
ST LOUIS INTL  CLOUDY    16   5  62 E7        30.64S WCI   6
6HR MIN TEMP:  15; 6HR MAX TEMP:  16;

SPIRIT OF STL  CLOUDY    17   4  56 E6        30.63S WCI   9
6HR MIN TEMP:  15; 6HR MAX TEMP:  17;

ST CHARLES     CLOUDY    14   5  67 E7        30.66R WCI   4
6HR MIN TEMP:  12; 6HR MAX TEMP:  14;


$$
MOZ072>076-082>087-097>100-106>115-281300-
...SOUTH CENTRAL AND SOUTHEAST MISSOURI...

CITY           SKY/WX    TMP DP  RH WIND       PRES   REMARKS
CAPE GIRARDEAU CLOUDY    20  11  68 NE12      30.64R WCI   8
6HR MIN TEMP:  20; 6HR MAX TEMP:  20;

FARMINGTON     MOCLDY    16  10  79 E8        30.61R WCI   5
6HR MIN TEMP:  16; 6HR MAX TEMP:  18;

POPLAR BLUFF   LGT SNOW  20  13  74 NE12      30.61R WCI   8
6HR MIN TEMP:  20; 6HR MAX TEMP:  22; 6HR PCP: TRACE;

WEST PLAINS    FLURRIES  18   9  68 E9        30.52S WCI   7
6HR MIN TEMP:  18; 6HR MAX TEMP:  20; 6HR PCP: TRACE;


$$


USA.gov is the U.S. government's official web portal to all federal, state and local government web resources and services.